TimeEST,TemperatureF,Dew PointF,Humidity,Sea Level PressureIn,VisibilityMPH,Wind Direction,Wind SpeedMPH,Gust SpeedMPH,PrecipitationIn,Events,Conditions,WindDirDegrees,DateUTC
12:07 AM,28.4,26.6,93,30.24,10.0,Calm,Calm,-,N/A,,Clear,0,2013-12-19 05:07:00
12:27 AM,28.4,24.8,86,30.24,10.0,SSW,3.5,-,N/A,,Clear,210,2013-12-19 05:27:00
12:47 AM,30.2,24.8,80,30.24,10.0,SW,3.5,-,N/A,,Clear,220,2013-12-19 05:47:00
1:07 AM,30.2,26.6,86,30.23,10.0,Calm,Calm,-,N/A,,Clear,0,2013-12-19 06:07:00
1:27 AM,30.2,26.6,86,30.23,10.0,South,3.5,-,N/A,,Clear,190,2013-12-19 06:27:00
1:47 AM,32.0,26.6,80,30.23,10.0,SSW,3.5,-,N/A,,Clear,200,2013-12-19 06:47:00
2:07 AM,32.0,26.6,80,30.23,10.0,South,4.6,-,N/A,,Clear,190,2013-12-19 07:07:00
2:27 AM,32.0,26.6,80,30.23,10.0,SSW,4.6,-,N/A,,Clear,200,2013-12-19 07:27:00
2:47 AM,32.0,26.6,80,30.24,10.0,SSW,3.5,-,N/A,,Clear,210,2013-12-19 07:47:00
3:07 AM,32.0,26.6,80,30.23,10.0,South,3.5,-,N/A,,Clear,190,2013-12-19 08:07:00
3:27 AM,32.0,26.6,80,30.23,10.0,SSW,3.5,-,N/A,,Clear,200,2013-12-19 08:27:00
3:47 AM,32.0,26.6,80,30.23,10.0,SW,3.5,-,N/A,,Clear,220,2013-12-19 08:47:00
4:07 AM,32.0,26.6,80,30.21,10.0,South,3.5,-,N/A,,Clear,170,2013-12-19 09:07:00
4:27 AM,32.0,24.8,75,30.21,10.0,South,3.5,-,N/A,,Clear,190,2013-12-19 09:27:00
4:47 AM,32.0,24.8,75,30.21,10.0,South,3.5,-,N/A,,Clear,190,2013-12-19 09:47:00
5:07 AM,32.0,24.8,75,30.21,10.0,SSW,5.8,-,N/A,,Clear,210,2013-12-19 10:07:00
5:27 AM,32.0,24.8,75,30.21,10.0,SSW,4.6,-,N/A,,Clear,210,2013-12-19 10:27:00
5:47 AM,32.0,24.8,75,30.21,10.0,SSW,6.9,-,N/A,,Clear,210,2013-12-19 10:47:00
6:07 AM,32.0,24.8,75,30.21,10.0,SSW,4.6,-,N/A,,Clear,200,2013-12-19 11:07:00
6:27 AM,33.8,24.8,70,30.21,10.0,SSW,5.8,-,N/A,,Clear,210,2013-12-19 11:27:00
6:47 AM,33.8,24.8,70,30.21,10.0,SSW,5.8,-,N/A,,Clear,210,2013-12-19 11:47:00
7:07 AM,33.8,24.8,70,30.21,10.0,SSW,6.9,-,N/A,,Clear,210,2013-12-19 12:07:00
7:27 AM,33.8,23.0,65,30.21,10.0,SSW,6.9,-,N/A,,Clear,210,2013-12-19 12:27:00
7:48 AM,33.8,23.0,65,30.21,10.0,SSW,6.9,-,N/A,,Clear,200,2013-12-19 12:48:00
8:08 AM,35.6,23.0,60,30.20,10.0,SSW,8.1,-,N/A,,Clear,210,2013-12-19 13:08:00
8:28 AM,35.6,23.0,60,30.20,10.0,SSW,9.2,-,N/A,,Clear,210,2013-12-19 13:28:00
8:48 AM,37.4,23.0,56,30.20,10.0,SSW,8.1,-,N/A,,Clear,210,2013-12-19 13:48:00
9:08 AM,37.4,23.0,56,30.20,10.0,SSW,9.2,16.1,N/A,,Clear,210,2013-12-19 14:08:00
9:28 AM,41.0,23.0,49,30.20,10.0,SSW,10.4,16.1,N/A,,Clear,210,2013-12-19 14:28:00
9:48 AM,42.8,23.0,46,30.19,10.0,SW,10.4,18.4,N/A,,Clear,220,2013-12-19 14:48:00
10:08 AM,44.6,21.2,39,30.19,10.0,SW,15.0,19.6,N/A,,Clear,220,2013-12-19 15:08:00
10:28 AM,44.6,21.2,39,30.20,10.0,SW,9.2,19.6,N/A,,Clear,230,2013-12-19 15:28:00
10:48 AM,46.4,21.2,37,30.19,10.0,North,-9999.0,-,N/A,,Clear,0,2013-12-19 15:48:00
11:08 AM,50.0,23.0,35,30.18,10.0,SW,13.8,-,N/A,,Clear,230,2013-12-19 16:08:00
11:28 AM,50.0,23.0,35,30.18,10.0,SW,9.2,-,N/A,,Clear,230,2013-12-19 16:28:00
11:48 AM,51.8,23.0,33,30.17,10.0,SW,11.5,17.3,N/A,,Clear,230,2013-12-19 16:48:00
12:08 PM,51.8,24.8,35,30.16,10.0,SW,10.4,19.6,N/A,,Clear,220,2013-12-19 17:08:00
12:28 PM,53.6,24.8,33,30.15,10.0,SW,11.5,18.4,N/A,,Clear,230,2013-12-19 17:28:00
12:48 PM,55.4,26.6,33,30.14,10.0,SW,6.9,-,N/A,,Clear,230,2013-12-19 17:48:00
1:08 PM,55.4,26.6,33,30.14,10.0,SW,9.2,-,N/A,,Clear,220,2013-12-19 18:08:00
1:28 PM,55.4,26.6,33,30.14,10.0,SW,6.9,18.4,N/A,,Clear,220,2013-12-19 18:28:00
1:48 PM,57.2,26.6,31,30.13,10.0,SSW,9.2,16.1,N/A,,Clear,200,2013-12-19 18:48:00
2:08 PM,59.0,26.6,29,30.13,10.0,SSW,5.8,-,N/A,,Clear,200,2013-12-19 19:08:00
2:28 PM,59.0,26.6,29,30.13,10.0,SSW,6.9,-,N/A,,Clear,200,2013-12-19 19:28:00
2:48 PM,59.0,26.6,29,30.12,10.0,SW,8.1,-,N/A,,Clear,220,2013-12-19 19:48:00
3:08 PM,59.0,26.6,29,30.12,10.0,SW,9.2,-,N/A,,Clear,220,2013-12-19 20:08:00
3:28 PM,59.0,26.6,29,30.12,10.0,SSW,8.1,-,N/A,,Clear,210,2013-12-19 20:28:00
3:48 PM,59.0,26.6,29,30.13,10.0,SW,6.9,-,N/A,,Clear,220,2013-12-19 20:48:00
4:08 PM,59.0,26.6,29,30.13,10.0,South,4.6,-,N/A,,Clear,190,2013-12-19 21:08:00
4:29 PM,57.2,26.6,31,30.14,10.0,SSW,5.8,-,N/A,,Clear,200,2013-12-19 21:29:00
4:49 PM,55.4,26.6,33,30.14,10.0,South,4.6,-,N/A,,Clear,190,2013-12-19 21:49:00
5:09 PM,53.6,26.6,35,30.15,10.0,South,5.8,-,N/A,,Clear,190,2013-12-19 22:09:00
5:29 PM,53.6,26.6,35,30.15,10.0,SSW,4.6,-,N/A,,Clear,200,2013-12-19 22:29:00
5:49 PM,53.6,26.6,35,30.16,10.0,SSW,4.6,-,N/A,,Clear,210,2013-12-19 22:49:00
6:09 PM,51.8,26.6,38,30.16,10.0,SSW,5.8,-,N/A,,Clear,210,2013-12-19 23:09:00
6:29 PM,53.6,26.6,35,30.17,10.0,SSW,6.9,-,N/A,,Clear,210,2013-12-19 23:29:00
6:49 PM,53.6,26.6,35,30.17,10.0,SSW,9.2,16.1,N/A,,Clear,210,2013-12-19 23:49:00
7:09 PM,51.8,26.6,38,30.18,10.0,SW,9.2,-,N/A,,Clear,220,2013-12-20 00:09:00
7:29 PM,51.8,26.6,38,30.18,10.0,SSW,10.4,-,N/A,,Clear,210,2013-12-20 00:29:00
7:49 PM,51.8,26.6,38,30.18,10.0,SW,9.2,18.4,N/A,,Clear,220,2013-12-20 00:49:00
8:09 PM,51.8,26.6,38,30.18,10.0,SSW,8.1,17.3,N/A,,Clear,210,2013-12-20 01:09:00
8:29 PM,51.8,26.6,38,30.19,10.0,SW,9.2,16.1,N/A,,Clear,220,2013-12-20 01:29:00
8:49 PM,51.8,26.6,38,30.19,10.0,SW,9.2,-,N/A,,Clear,220,2013-12-20 01:49:00
9:09 PM,51.8,28.4,41,30.19,10.0,SSW,10.4,-,N/A,,Clear,210,2013-12-20 02:09:00
9:29 PM,51.8,28.4,41,30.19,10.0,SSW,8.1,-,N/A,,Clear,210,2013-12-20 02:29:00
9:49 PM,51.8,28.4,41,30.19,10.0,SSW,8.1,-,N/A,,Clear,210,2013-12-20 02:49:00
10:09 PM,50.0,28.4,43,30.19,10.0,SSW,8.1,-,N/A,,Clear,210,2013-12-20 03:09:00
10:29 PM,50.0,28.4,43,30.19,10.0,SSW,8.1,-,N/A,,Clear,210,2013-12-20 03:29:00
10:49 PM,50.0,28.4,43,30.18,10.0,SSW,6.9,-,N/A,,Clear,210,2013-12-20 03:49:00
11:09 PM,50.0,28.4,43,30.18,10.0,SSW,6.9,-,N/A,,Clear,210,2013-12-20 04:09:00
11:29 PM,50.0,28.4,43,30.17,10.0,SSW,8.1,-,N/A,,Clear,210,2013-12-20 04:29:00
11:49 PM,50.0,26.6,40,30.16,10.0,SSW,6.9,-,N/A,,Clear,200,2013-12-20 04:49:00